User: anonymous   Login
Location: Melbourne
(37.8170°S, 144.9670°E)
Time: 23:59:08
(UTC+10:00)
Language:

ADEOS Rocket - Orbit

View from above orbital plane
View from above orbital plane
View from above satellite
View from above satellite

Ground track
Ground track

The orbit data is extracted from the following two-line orbital elements,

1 24279U 96046C   17263.89351619 +.00000021 +00000-0 +69497-4 0  9992
2 24279 098.7579 196.0436 0300935 044.9578 357.2606 13.47093978036859
Epoch (UTC): 20 September 2017 21:26:39
Eccentricity: 0.0300935
inclination: 98.7579°
perigee height: 858 km
apogee height: 1307 km
right ascension of ascending node: 196.0436°
argument of perigee: 44.9578°
revolutions per day: 13.47093978
mean anomaly at epoch: 357.2606°
orbit number at epoch: 3685

The dashed part of the orbit path shows where the satellite is in the earth's shadow,  

DLR